OMD210 KDFW-KMZJ

Flight info

Callsign OMD210
Flight time 2h 0m
Altitude 38000
Route WSTEX2 CIKAN DCT EWM DCT TUS DCT
Aircraft A321/M-SDFGHIRW/LB1

Departure

Time 2026-05-08 00:11
Airport Dallas Fort Worth International Airport (KDFW)

Arrival

Time 2026-05-08 02:11
Airport Pinal Airpark (KMZJ)
Time Latitude Longitude Altitude Speed Heading
2026-05-07 23:28 32.88252 -97.03458 624 ft 0 kts 321°
2026-05-07 23:30 32.88251 -97.03457 624 ft 0 kts 321°
2026-05-08 00:00 32.88262 -97.03467 630 ft 8 kts 323°
2026-05-08 00:00 32.88341 -97.03484 623 ft 14 kts 359°
2026-05-08 00:00 32.88427 -97.03484 620 ft 13 kts
2026-05-08 00:01 32.88515 -97.03489 621 ft 14 kts 359°
2026-05-08 00:01 32.88593 -97.03519 625 ft 13 kts 294°
2026-05-08 00:01 32.88600 -97.03638 616 ft 16 kts 270°
2026-05-08 00:01 32.88600 -97.03785 616 ft 20 kts 270°
2026-05-08 00:02 32.88600 -97.03956 616 ft 22 kts 270°
2026-05-08 00:02 32.88601 -97.04151 616 ft 25 kts 270°
2026-05-08 00:02 32.88604 -97.04366 616 ft 26 kts 270°
2026-05-08 00:02 32.88604 -97.04538 616 ft 19 kts 270°
2026-05-08 00:03 32.88603 -97.04691 616 ft 20 kts 269°
2026-05-08 00:03 32.88605 -97.04844 616 ft 12 kts 272°
2026-05-08 00:03 32.88655 -97.04893 624 ft 13 kts 355°
2026-05-08 00:03 32.88779 -97.04894 619 ft 21 kts
2026-05-08 00:04 32.88934 -97.04892 620 ft 24 kts
2026-05-08 00:04 32.89106 -97.04891 620 ft 26 kts
2026-05-08 00:04 32.89299 -97.04890 620 ft 29 kts
2026-05-08 00:04 32.89509 -97.04889 620 ft 31 kts
2026-05-08 00:05 32.89714 -97.04887 619 ft 28 kts 360°
2026-05-08 00:05 32.89896 -97.04886 619 ft 27 kts
2026-05-08 00:05 32.90085 -97.04886 619 ft 30 kts
2026-05-08 00:05 32.90248 -97.04885 626 ft 22 kts
2026-05-08 00:06 32.90405 -97.04884 621 ft 24 kts
2026-05-08 00:06 32.90573 -97.04884 623 ft 24 kts
2026-05-08 00:06 32.90739 -97.04883 623 ft 21 kts
2026-05-08 00:06 32.90887 -97.04881 623 ft 22 kts
2026-05-08 00:07 32.91046 -97.04881 620 ft 23 kts
2026-05-08 00:07 32.91179 -97.04881 623 ft 19 kts
2026-05-08 00:07 32.91285 -97.04880 621 ft 16 kts
2026-05-08 00:07 32.91368 -97.04880 621 ft 10 kts
2026-05-08 00:08 32.91416 -97.04902 626 ft 7 kts 308°
2026-05-08 00:08 32.91423 -97.04942 618 ft 1 kts 272°
2026-05-08 00:08 32.91423 -97.04943 618 ft 0 kts 272°
2026-05-08 00:09 32.91423 -97.04955 619 ft 4 kts 272°
2026-05-08 00:09 32.91419 -97.05048 616 ft 15 kts 245°
2026-05-08 00:10 32.91318 -97.05081 620 ft 17 kts 173°
2026-05-08 00:10 32.91081 -97.05076 623 ft 72 kts 180°
2026-05-08 00:10 32.90279 -97.05080 625 ft 153 kts 180°
2026-05-08 00:10 32.89129 -97.05079 1149 ft 172 kts 180°
2026-05-08 00:11 32.87867 -97.05057 1761 ft 192 kts 178°
2026-05-08 00:11 32.86473 -97.05015 2197 ft 210 kts 178°
2026-05-08 00:11 32.84981 -97.05030 2611 ft 221 kts 181°
2026-05-08 00:11 32.83396 -97.05080 3038 ft 239 kts 180°
2026-05-08 00:12 32.81654 -97.05138 3675 ft 257 kts 180°
2026-05-08 00:12 32.79862 -97.05196 4823 ft 259 kts 181°
2026-05-08 00:12 32.78047 -97.05249 5914 ft 263 kts 183°
2026-05-08 00:12 32.76210 -97.05299 6990 ft 264 kts 185°
2026-05-08 00:13 32.74370 -97.05350 8008 ft 266 kts 186°
2026-05-08 00:13 32.72594 -97.05788 9001 ft 264 kts 207°
2026-05-08 00:13 32.71095 -97.07007 10020 ft 264 kts 227°
2026-05-08 00:13 32.70072 -97.08888 10520 ft 285 kts 250°
2026-05-08 00:14 32.69558 -97.11262 10891 ft 310 kts 257°
2026-05-08 00:14 32.69110 -97.13864 11219 ft 334 kts 263°
2026-05-08 00:14 32.69049 -97.16682 11887 ft 344 kts 269°
2026-05-08 00:14 32.69011 -97.19538 12817 ft 347 kts 268°
2026-05-08 00:15 32.68955 -97.22421 13807 ft 350 kts 269°
2026-05-08 00:15 32.68892 -97.25319 14660 ft 353 kts 268°
2026-05-08 00:15 32.68827 -97.28233 15538 ft 356 kts 268°
2026-05-08 00:15 32.68761 -97.31188 16409 ft 359 kts 268°
2026-05-08 00:16 32.68696 -97.34128 17238 ft 362 kts 267°
2026-05-08 00:16 32.68629 -97.37133 18072 ft 366 kts 267°
2026-05-08 00:16 32.68560 -97.40176 18837 ft 370 kts 267°
2026-05-08 00:16 32.68493 -97.43237 19579 ft 372 kts 267°
2026-05-08 00:17 32.68425 -97.46322 20322 ft 374 kts 267°
2026-05-08 00:17 32.68358 -97.49420 21039 ft 376 kts 268°
2026-05-08 00:17 32.68289 -97.52532 21754 ft 378 kts 268°
2026-05-08 00:17 32.68221 -97.55664 22439 ft 380 kts 268°
2026-05-08 00:18 32.68151 -97.58809 23131 ft 382 kts 268°
2026-05-08 00:18 32.68080 -97.61969 23774 ft 384 kts 268°
2026-05-08 00:18 32.68007 -97.65106 24317 ft 386 kts 267°
2026-05-08 00:18 32.67930 -97.68304 24874 ft 387 kts 267°
2026-05-08 00:19 32.67852 -97.71504 25425 ft 389 kts 266°
2026-05-08 00:19 32.67754 -97.74722 25963 ft 390 kts 265°
2026-05-08 00:19 32.67568 -97.77943 26511 ft 391 kts 263°
2026-05-08 00:19 32.67318 -97.81164 27050 ft 393 kts 262°
2026-05-08 00:20 32.67034 -97.84397 27617 ft 394 kts 262°
2026-05-08 00:20 32.66744 -97.87639 28167 ft 396 kts 262°
2026-05-08 00:20 32.66460 -97.90891 28689 ft 397 kts 262°
2026-05-08 00:20 32.66186 -97.94165 29173 ft 398 kts 262°
2026-05-08 00:21 32.65924 -97.97424 29824 ft 395 kts 261°
2026-05-08 00:21 32.65674 -98.00618 30450 ft 391 kts 261°
2026-05-08 00:21 32.65425 -98.03827 31002 ft 389 kts 261°
2026-05-08 00:21 32.65177 -98.07015 31510 ft 388 kts 261°
2026-05-08 00:22 32.64928 -98.10197 32016 ft 387 kts 260°
2026-05-08 00:22 32.64675 -98.13376 32527 ft 386 kts 260°
2026-05-08 00:22 32.64419 -98.16542 33016 ft 385 kts 260°
2026-05-08 00:22 32.64161 -98.19700 33517 ft 384 kts 259°
2026-05-08 00:23 32.63904 -98.22850 34010 ft 383 kts 259°
2026-05-08 00:23 32.63650 -98.25997 34468 ft 382 kts 259°
2026-05-08 00:23 32.63398 -98.29118 34959 ft 379 kts 260°
2026-05-08 00:23 32.63150 -98.32216 35483 ft 376 kts 260°
2026-05-08 00:24 32.62902 -98.35296 36015 ft 372 kts 260°
2026-05-08 00:24 32.62658 -98.38298 36561 ft 368 kts 260°
2026-05-08 00:24 32.62411 -98.41313 37100 ft 365 kts 260°
2026-05-08 00:24 32.62167 -98.44296 37625 ft 361 kts 261°
2026-05-08 00:25 32.61923 -98.47258 37965 ft 360 kts 260°
2026-05-08 00:25 32.61679 -98.50200 38030 ft 356 kts 261°
2026-05-08 00:25 32.61197 -98.56009 38040 ft 352 kts 260°
2026-05-08 00:26 32.60714 -98.61758 38044 ft 352 kts 260°
2026-05-08 00:26 32.60227 -98.67539 38040 ft 352 kts 260°
2026-05-08 00:27 32.59736 -98.73321 38042 ft 352 kts 260°
2026-05-08 00:27 32.59251 -98.79069 38044 ft 352 kts 260°
2026-05-08 00:28 32.58759 -98.84858 38052 ft 353 kts 260°
2026-05-08 00:28 32.58340 -98.89677 38052 ft 353 kts 260°
2026-05-08 00:29 32.57837 -98.95466 38053 ft 353 kts 260°
2026-05-08 00:29 32.57330 -99.01257 38051 ft 353 kts 260°
2026-05-08 00:30 32.56829 -99.07057 38052 ft 353 kts 260°
2026-05-08 00:30 32.56329 -99.12859 38049 ft 353 kts 259°
2026-05-08 00:31 32.55820 -99.18652 38045 ft 354 kts 259°
2026-05-08 00:31 32.55308 -99.24456 38041 ft 354 kts 259°
2026-05-08 00:32 32.54788 -99.30262 38045 ft 354 kts 259°
2026-05-08 00:32 32.54300 -99.36038 38053 ft 355 kts 260°
2026-05-08 00:33 32.53962 -99.41884 38058 ft 356 kts 261°
2026-05-08 00:33 32.53654 -99.47738 38062 ft 356 kts 261°
2026-05-08 00:34 32.53318 -99.53591 38064 ft 356 kts 261°
2026-05-08 00:34 32.52955 -99.59450 38069 ft 356 kts 260°
2026-05-08 00:35 32.52590 -99.65310 38073 ft 356 kts 260°
2026-05-08 00:35 32.52228 -99.71134 38074 ft 357 kts 260°
2026-05-08 00:36 32.51870 -99.77001 38043 ft 357 kts 260°
2026-05-08 00:36 32.51507 -99.82872 38049 ft 357 kts 260°
2026-05-08 00:37 32.51135 -99.88748 38049 ft 357 kts 260°
2026-05-08 00:38 32.50577 -99.97521 38046 ft 358 kts 260°
2026-05-08 00:38 32.50199 -100.03400 38041 ft 358 kts 260°
2026-05-08 00:39 32.49812 -100.09291 38033 ft 358 kts 260°
2026-05-08 00:39 32.49421 -100.15172 38024 ft 358 kts 260°
2026-05-08 00:40 32.49035 -100.21020 38060 ft 358 kts 260°
2026-05-08 00:40 32.48650 -100.26902 38073 ft 358 kts 260°
2026-05-08 00:41 32.48265 -100.32778 38078 ft 359 kts 260°
2026-05-08 00:41 32.47876 -100.38690 38092 ft 359 kts 260°
2026-05-08 00:42 32.47488 -100.44555 38091 ft 359 kts 260°
2026-05-08 00:42 32.47098 -100.50450 38091 ft 359 kts 259°
2026-05-08 00:43 32.46700 -100.56341 38093 ft 359 kts 259°
2026-05-08 00:43 32.46302 -100.62245 38076 ft 359 kts 259°
2026-05-08 00:44 32.45901 -100.68160 38059 ft 360 kts 259°
2026-05-08 00:44 32.45491 -100.74065 38040 ft 360 kts 259°
2026-05-08 00:45 32.45088 -100.79937 38018 ft 360 kts 259°
2026-05-08 00:45 32.44679 -100.85852 38021 ft 360 kts 259°
2026-05-08 00:46 32.44260 -100.91766 38019 ft 360 kts 259°
2026-05-08 00:46 32.43840 -100.97682 38017 ft 361 kts 259°
2026-05-08 00:47 32.43424 -101.03601 38015 ft 361 kts 259°
2026-05-08 00:47 32.43009 -101.09529 37995 ft 361 kts 259°
2026-05-08 00:48 32.42582 -101.15448 37995 ft 361 kts 259°
2026-05-08 00:48 32.42150 -101.21374 37992 ft 361 kts 259°
2026-05-08 00:49 32.41721 -101.27303 38001 ft 362 kts 259°
2026-05-08 00:49 32.41292 -101.33195 38022 ft 362 kts 259°
2026-05-08 00:50 32.40857 -101.39138 38029 ft 362 kts 259°
2026-05-08 00:50 32.40421 -101.45075 38028 ft 362 kts 259°
2026-05-08 00:51 32.39973 -101.51017 38033 ft 362 kts 259°
2026-05-08 00:51 32.39527 -101.56910 38041 ft 362 kts 259°
2026-05-08 00:52 32.39075 -101.62852 38040 ft 362 kts 259°
2026-05-08 00:52 32.38621 -101.68798 38026 ft 362 kts 259°
2026-05-08 00:53 32.38170 -101.74750 38020 ft 362 kts 259°
2026-05-08 00:53 32.37717 -101.80651 38007 ft 362 kts 258°
2026-05-08 00:54 32.37259 -101.86593 37993 ft 363 kts 258°
2026-05-08 00:54 32.36791 -101.92541 37978 ft 363 kts 258°
2026-05-08 00:55 32.36316 -101.98482 37993 ft 363 kts 258°
2026-05-08 00:55 32.35849 -102.04426 37995 ft 363 kts 258°
2026-05-08 00:56 32.35386 -102.10327 37998 ft 363 kts 258°
2026-05-08 00:56 32.34914 -102.16273 37996 ft 363 kts 258°
2026-05-08 00:57 32.34437 -102.22218 37993 ft 363 kts 258°
2026-05-08 00:57 32.33954 -102.28160 37991 ft 363 kts 258°
2026-05-08 00:58 32.33471 -102.34110 37985 ft 363 kts 258°
2026-05-08 00:58 32.32985 -102.40061 37984 ft 363 kts 258°
2026-05-08 00:59 32.32495 -102.46015 37986 ft 364 kts 258°
2026-05-08 00:59 32.31999 -102.51973 37987 ft 364 kts 258°
2026-05-08 01:00 32.31632 -102.56349 37985 ft 364 kts 258°
2026-05-08 01:00 32.31136 -102.62316 37983 ft 364 kts 258°
2026-05-08 01:01 32.30632 -102.68279 37985 ft 364 kts 258°
2026-05-08 01:01 32.30133 -102.74213 37982 ft 365 kts 258°
2026-05-08 01:02 32.29629 -102.80181 37986 ft 365 kts 258°
2026-05-08 01:02 32.29119 -102.86151 37975 ft 365 kts 257°
2026-05-08 01:03 32.28609 -102.92131 37981 ft 365 kts 257°
2026-05-08 01:03 32.28092 -102.98092 37983 ft 365 kts 257°
2026-05-08 01:04 32.27569 -103.04072 37983 ft 365 kts 257°
2026-05-08 01:04 32.27050 -103.10019 37978 ft 366 kts 257°
2026-05-08 01:05 32.26848 -103.16076 37972 ft 371 kts 262°
2026-05-08 01:05 32.26906 -103.22182 37970 ft 372 kts 263°
2026-05-08 01:06 32.26985 -103.28310 37968 ft 373 kts 263°
2026-05-08 01:06 32.27043 -103.34440 37966 ft 373 kts 262°
2026-05-08 01:07 32.27080 -103.40539 37968 ft 373 kts 262°
2026-05-08 01:07 32.27111 -103.46684 37964 ft 374 kts 262°
2026-05-08 01:08 32.27146 -103.52830 37956 ft 374 kts 262°
2026-05-08 01:08 32.27181 -103.58985 37952 ft 375 kts 262°
2026-05-08 01:09 32.27213 -103.65167 37952 ft 376 kts 262°
2026-05-08 01:09 32.27238 -103.71320 37946 ft 377 kts 262°
2026-05-08 01:10 32.27264 -103.77530 37942 ft 378 kts 262°
2026-05-08 01:10 32.27283 -103.83739 37937 ft 378 kts 262°
2026-05-08 01:11 32.27294 -103.89969 37950 ft 379 kts 262°
2026-05-08 01:11 32.27307 -103.96224 37973 ft 380 kts 263°
2026-05-08 01:12 32.27324 -104.02450 37983 ft 382 kts 263°
2026-05-08 01:12 32.27335 -104.08730 37998 ft 382 kts 263°
2026-05-08 01:13 32.27344 -104.15032 38014 ft 383 kts 263°
2026-05-08 01:13 32.27345 -104.21306 38026 ft 384 kts 263°
2026-05-08 01:14 32.27338 -104.27628 38024 ft 385 kts 263°
2026-05-08 01:14 32.27341 -104.33975 38026 ft 386 kts 263°
2026-05-08 01:15 32.27336 -104.40330 38014 ft 387 kts 263°
2026-05-08 01:15 32.27323 -104.45667 38001 ft 388 kts 263°
2026-05-08 01:16 32.27310 -104.52002 37986 ft 389 kts 263°
2026-05-08 01:16 32.27298 -104.58393 37972 ft 389 kts 263°
2026-05-08 01:17 32.27281 -104.64796 37962 ft 390 kts 263°
2026-05-08 01:17 32.27262 -104.71200 37951 ft 389 kts 263°
2026-05-08 01:18 32.27239 -104.77609 37958 ft 390 kts 263°
2026-05-08 01:18 32.27205 -104.83983 37952 ft 390 kts 263°
2026-05-08 01:19 32.27172 -104.90394 37950 ft 390 kts 264°
2026-05-08 01:19 32.27134 -104.96817 37947 ft 390 kts 264°
2026-05-08 01:20 32.27099 -105.03233 37940 ft 390 kts 264°
2026-05-08 01:20 32.27053 -105.09643 37934 ft 390 kts 264°
2026-05-08 01:21 32.27009 -105.16064 37923 ft 390 kts 264°
2026-05-08 01:21 32.26964 -105.22443 37923 ft 391 kts 264°
2026-05-08 01:22 32.26911 -105.28862 37928 ft 391 kts 264°
2026-05-08 01:22 32.26853 -105.35288 37925 ft 391 kts 264°
2026-05-08 01:23 32.26793 -105.41714 37921 ft 391 kts 264°
2026-05-08 01:23 32.26736 -105.48152 37920 ft 392 kts 264°
2026-05-08 01:24 32.26675 -105.54602 37913 ft 392 kts 264°
2026-05-08 01:24 32.26606 -105.61054 37912 ft 393 kts 264°
2026-05-08 01:25 32.26530 -105.67487 37908 ft 394 kts 264°
2026-05-08 01:25 32.26450 -105.73965 37903 ft 395 kts 264°
2026-05-08 01:26 32.26371 -105.80453 37896 ft 396 kts 264°
2026-05-08 01:26 32.26294 -105.86977 37891 ft 396 kts 264°
2026-05-08 01:27 32.26211 -105.93504 37889 ft 397 kts 264°
2026-05-08 01:27 32.26118 -105.99996 37888 ft 398 kts 264°
2026-05-08 01:28 32.26021 -106.06544 37883 ft 399 kts 264°
2026-05-08 01:28 32.25928 -106.13104 37881 ft 399 kts 264°
2026-05-08 01:29 32.25832 -106.19674 37880 ft 400 kts 264°
2026-05-08 01:29 32.25729 -106.26262 37878 ft 401 kts 264°
2026-05-08 01:30 32.25617 -106.32808 37873 ft 402 kts 264°
2026-05-08 01:30 32.25503 -106.39428 37868 ft 403 kts 264°
2026-05-08 01:31 32.25382 -106.46052 37867 ft 403 kts 263°
2026-05-08 01:31 32.25265 -106.52646 37878 ft 404 kts 264°
2026-05-08 01:32 32.25139 -106.59297 37913 ft 405 kts 264°
2026-05-08 01:32 32.25011 -106.65970 37944 ft 406 kts 264°
2026-05-08 01:33 32.24881 -106.72653 37981 ft 407 kts 264°
2026-05-08 01:33 32.24743 -106.79347 38015 ft 407 kts 263°
2026-05-08 01:34 32.24600 -106.86047 38032 ft 408 kts 263°
2026-05-08 01:34 32.24453 -106.92722 38033 ft 409 kts 263°
2026-05-08 01:35 32.24306 -106.99449 38037 ft 410 kts 264°
2026-05-08 01:35 32.24157 -107.06183 38015 ft 410 kts 264°
2026-05-08 01:36 32.24003 -107.12940 37977 ft 411 kts 263°
2026-05-08 01:36 32.23848 -107.19651 37937 ft 411 kts 263°
2026-05-08 01:37 32.23681 -107.26416 37902 ft 412 kts 263°
2026-05-08 01:37 32.23513 -107.33176 37871 ft 412 kts 263°
2026-05-08 01:38 32.23344 -107.39956 37905 ft 413 kts 264°
2026-05-08 01:38 32.23169 -107.46687 37940 ft 413 kts 264°
2026-05-08 01:39 32.22990 -107.53492 37974 ft 414 kts 264°
2026-05-08 01:39 32.22809 -107.60296 38009 ft 414 kts 263°
2026-05-08 01:40 32.22623 -107.67105 38014 ft 415 kts 264°
2026-05-08 01:40 32.22433 -107.73935 38018 ft 416 kts 264°
2026-05-08 01:41 32.22244 -107.80779 38019 ft 416 kts 264°
2026-05-08 01:41 32.22044 -107.87584 37982 ft 417 kts 264°
2026-05-08 01:42 32.21840 -107.94445 37946 ft 418 kts 264°
2026-05-08 01:42 32.21634 -108.01321 37908 ft 419 kts 264°
2026-05-08 01:43 32.21425 -108.08202 37870 ft 420 kts 264°
2026-05-08 01:43 32.21214 -108.15102 37837 ft 421 kts 264°
2026-05-08 01:44 32.21000 -108.22024 37835 ft 422 kts 264°
2026-05-08 01:44 32.20772 -108.28959 37835 ft 423 kts 264°
2026-05-08 01:45 32.20536 -108.35915 37868 ft 424 kts 264°
2026-05-08 01:45 32.20305 -108.42845 37900 ft 425 kts 264°
2026-05-08 01:46 32.20071 -108.49825 37926 ft 426 kts 264°
2026-05-08 01:46 32.19832 -108.56824 37952 ft 427 kts 264°
2026-05-08 01:47 32.19590 -108.63848 37968 ft 428 kts 264°
2026-05-08 01:47 32.19383 -108.69696 37975 ft 429 kts 264°
2026-05-08 01:48 32.19020 -108.79692 37952 ft 431 kts 264°
2026-05-08 01:48 32.18761 -108.86773 37928 ft 432 kts 264°
2026-05-08 01:49 32.18494 -108.93867 37888 ft 433 kts 264°
2026-05-08 01:49 32.18226 -109.00945 37860 ft 434 kts 264°
2026-05-08 01:50 32.17947 -109.08079 37829 ft 435 kts 265°
2026-05-08 01:50 32.17667 -109.15236 37825 ft 436 kts 265°
2026-05-08 01:51 32.17385 -109.22354 37834 ft 437 kts 265°
2026-05-08 01:51 32.17104 -109.29536 37839 ft 438 kts 265°
2026-05-08 01:52 32.16812 -109.36740 37843 ft 439 kts 265°
2026-05-08 01:52 32.16517 -109.43910 37835 ft 440 kts 265°
2026-05-08 01:53 32.16217 -109.51136 37842 ft 441 kts 265°
2026-05-08 01:53 32.15905 -109.58379 37851 ft 442 kts 265°
2026-05-08 01:54 32.15588 -109.65640 37848 ft 443 kts 265°
2026-05-08 01:54 32.15276 -109.72917 37853 ft 443 kts 265°
2026-05-08 01:55 32.14953 -109.80202 37848 ft 445 kts 265°
2026-05-08 01:55 32.14952 -109.83863 37842 ft 448 kts 276°
2026-05-08 01:55 32.15601 -109.87465 37754 ft 449 kts 282°
2026-05-08 01:56 32.16356 -109.90997 36606 ft 452 kts 283°
2026-05-08 01:56 32.17143 -109.94634 35112 ft 460 kts 284°
2026-05-08 01:56 32.17949 -109.98323 33581 ft 468 kts 285°
2026-05-08 01:56 32.18766 -110.02070 31815 ft 475 kts 287°
2026-05-08 01:57 32.19593 -110.05895 30015 ft 483 kts 288°
2026-05-08 01:57 32.20421 -110.09767 27812 ft 489 kts 287°
2026-05-08 01:57 32.21255 -110.13682 25927 ft 491 kts 286°
2026-05-08 01:57 32.22076 -110.17545 24688 ft 478 kts 285°
2026-05-08 01:58 32.22876 -110.21304 23520 ft 465 kts 285°
2026-05-08 01:58 32.23658 -110.24968 22216 ft 456 kts 285°
2026-05-08 01:58 32.24415 -110.28523 20772 ft 449 kts 285°
2026-05-08 01:58 32.25162 -110.32049 19823 ft 438 kts 285°
2026-05-08 01:59 32.25918 -110.35615 19225 ft 455 kts 285°
2026-05-08 01:59 32.26688 -110.39251 18621 ft 455 kts 285°
2026-05-08 01:59 32.27451 -110.42867 18031 ft 451 kts 285°
2026-05-08 01:59 32.28205 -110.46444 17364 ft 447 kts 285°
2026-05-08 02:00 32.28948 -110.49994 16724 ft 443 kts 285°
2026-05-08 02:00 32.29684 -110.53510 16097 ft 439 kts 285°
2026-05-08 02:00 32.30416 -110.56998 15472 ft 435 kts 285°
2026-05-08 02:00 32.31141 -110.60452 14876 ft 431 kts 285°
2026-05-08 02:01 32.31860 -110.63873 14300 ft 425 kts 285°
2026-05-08 02:01 32.32326 -110.66096 14002 ft 416 kts 284°
2026-05-08 02:01 32.33008 -110.69365 13547 ft 404 kts 285°
2026-05-08 02:01 32.33671 -110.72542 13061 ft 391 kts 284°
2026-05-08 02:02 32.34313 -110.75624 12582 ft 380 kts 284°
2026-05-08 02:02 32.34922 -110.78546 12119 ft 369 kts 285°
2026-05-08 02:02 32.35534 -110.81496 11631 ft 360 kts 285°
2026-05-08 02:02 32.36125 -110.84347 11101 ft 353 kts 285°
2026-05-08 02:03 32.36697 -110.87103 10580 ft 347 kts 285°
2026-05-08 02:03 32.37268 -110.89864 10045 ft 343 kts 285°
2026-05-08 02:03 32.37829 -110.92586 9503 ft 339 kts 285°
2026-05-08 02:03 32.38386 -110.95284 8878 ft 330 kts 285°
2026-05-08 02:04 32.38907 -110.97825 8265 ft 306 kts 285°
2026-05-08 02:04 32.39387 -111.00168 7699 ft 288 kts 285°
2026-05-08 02:04 32.39845 -111.02400 7133 ft 272 kts 285°
2026-05-08 02:04 32.40282 -111.04523 6647 ft 257 kts 286°
2026-05-08 02:05 32.40690 -111.06511 6276 ft 241 kts 286°
2026-05-08 02:05 32.41074 -111.08380 5890 ft 227 kts 286°
2026-05-08 02:05 32.41436 -111.10140 5502 ft 215 kts 286°
2026-05-08 02:05 32.41782 -111.11822 5122 ft 204 kts 286°
2026-05-08 02:06 32.42110 -111.13417 4793 ft 197 kts 286°
2026-05-08 02:06 32.42435 -111.14996 4526 ft 196 kts 284°
2026-05-08 02:06 32.42759 -111.16580 4278 ft 199 kts 284°
2026-05-08 02:06 32.43085 -111.18171 4018 ft 198 kts 284°
2026-05-08 02:07 32.43405 -111.19736 3758 ft 192 kts 285°
2026-05-08 02:07 32.43700 -111.21194 3526 ft 172 kts 286°
2026-05-08 02:07 32.44018 -111.22481 3388 ft 153 kts 293°
2026-05-08 02:07 32.44435 -111.23565 3303 ft 140 kts 298°
2026-05-08 02:08 32.44894 -111.24539 3263 ft 136 kts 301°
2026-05-08 02:08 32.45375 -111.25486 3220 ft 130 kts 301°
2026-05-08 02:08 32.45884 -111.26353 3185 ft 128 kts 304°
2026-05-08 02:08 32.46449 -111.27164 3098 ft 127 kts 309°
2026-05-08 02:09 32.47066 -111.27916 2935 ft 129 kts 315°
2026-05-08 02:09 32.47707 -111.28643 2809 ft 128 kts 313°
2026-05-08 02:09 32.48331 -111.29380 2664 ft 125 kts 310°
2026-05-08 02:09 32.48934 -111.30120 2445 ft 124 kts 311°
2026-05-08 02:10 32.49551 -111.30851 2205 ft 124 kts 312°
2026-05-08 02:10 32.50166 -111.31571 1991 ft 123 kts 313°
2026-05-08 02:10 32.50759 -111.32268 1901 ft 113 kts 314°
2026-05-08 02:10 32.51162 -111.32747 1896 ft 53 kts 315°
2026-05-08 02:11 32.51305 -111.32909 1887 ft 11 kts 327°
2026-05-08 02:11 32.51368 -111.32878 1890 ft 10 kts 43°
2026-05-08 02:11 32.51405 -111.32818 1888 ft 9 kts 82°
2026-05-08 02:11 32.51361 -111.32741 1896 ft 13 kts 135°
2026-05-08 02:12 32.51292 -111.32659 1894 ft 14 kts 135°
2026-05-08 02:12 32.51220 -111.32572 1894 ft 15 kts 133°
2026-05-08 02:12 32.51148 -111.32484 1885 ft 13 kts 135°
2026-05-08 02:12 32.51082 -111.32406 1893 ft 14 kts 135°
2026-05-08 02:13 32.51015 -111.32327 1894 ft 15 kts 135°
2026-05-08 02:13 32.50947 -111.32245 1892 ft 14 kts 134°
2026-05-08 02:13 32.50878 -111.32161 1900 ft 15 kts 133°
2026-05-08 02:13 32.50828 -111.32088 1899 ft 8 kts 98°
2026-05-08 02:14 32.50868 -111.32033 1896 ft 10 kts 43°
2026-05-08 02:14 32.50887 -111.32012 1895 ft 0 kts 44°